Meteo Giornale » Osservazioni meteo Italia » Roma-Ciampino

ore: 17:50 - Osservazioni Meteo Roma-Ciampino
Lat. 41° 47' N Lon. 12° 35' E Alt. 129 metri s.l.m.

poco_nuvoloso Europe/Rome

23 °C

Poco Nuvoloso

Temp. 24 Ore

15 °C

26 °C

Sud-Ovest

7.4 Km/h

Dew point 16 °C

Umidità 64 %

Visibilità  10 Km

Il sole sorge alle ore 07:24

Il sole tramonta alle ore 18:25

Data e Ora Cielo e Fenomeni T °C DP °C Um. % Pres. hPa Vis. km Vento km/h
Oggi h: 17:50 poco_nuvoloso Poco Nuvoloso 23 16 64 1011 10 SO 7.4
Oggi h: 17:20 poco_nuvoloso Poco Nuvoloso 24 16 60 1011 10 SO 7.4
Oggi h: 16:50 poco_nuvoloso Poco Nuvoloso 24 16 60 1011 10 O/SO 11.1
Oggi h: 16:20 poco_nuvoloso Poco Nuvoloso 26 14 47 1011 10 O 7.4
Oggi h: 15:50 poco_nuvoloso Poco Nuvoloso 25 14 50 1012 10 O 7.4
Oggi h: 15:20 poco_nuvoloso Poco Nuvoloso 26 14 47 1011 10 O/SO 7.4
Oggi h: 13:50 poco_nuvoloso Poco Nuvoloso 24 15 57 1012 10 NO 7.4
Oggi h: 13:20 poco_nuvoloso Poco Nuvoloso 24 15 57 1012 10 N/NO 11.1
Oggi h: 12:50 poco_nuvoloso Poco Nuvoloso 24 14 53 1013 10 N 7.4
Oggi h: 12:20 poco_nuvoloso Poco Nuvoloso 24 15 57 1013 10 N 3.7
Oggi h: 11:50 poco_nuvoloso Poco Nuvoloso 23 15 60 1013 10 N 5.5
Oggi h: 11:20 sereno Sereno 22 15 64 1013 10 N 3.7
Oggi h: 10:50 sereno Sereno 21 16 73 1013 10 N 3.7
Oggi h: 10:20 sereno Sereno 20 15 72 1013 10 N 3.7
Oggi h: 09:50 sereno Sereno 19 15 77 1013 10 N 5.5
Oggi h: 09:20 sereno Sereno 18 15 82 1013 10 N 5.5
Oggi h: 08:50 sereno Sereno 16 14 87 1013 10 N 5.5
Oggi h: 08:20 sereno Sereno 15 14 93 1012 10 N 5.5
Oggi h: 07:50 sereno Sereno 15 14 93 1012 10 N/NE 13
Oggi h: 07:20 sereno Sereno 15 14 93 1012 10 N/NE 11.1
Oggi h: 06:50 sereno Sereno 16 14 87 1012 10 N/NE 11.1
Oggi h: 06:20 sereno Sereno 16 14 87 1012 10 NE 11.1
Oggi h: 05:50 sereno Sereno 16 15 93 1013 10 N/NE 13
Oggi h: 05:20 sereno Sereno 16 15 93 1013 10 N/NE 13
Oggi h: 04:50 sereno Sereno 17 15 88 1013 10 N/NE 14.8
Oggi h: 04:20 sereno Sereno 16 14 87 1013 10 N 3.7
Oggi h: 03:50 sereno Sereno 16 14 87 1013 10 N 3.7
Oggi h: 03:20 sereno Sereno 16 14 87 1013 10 N 7.4
Oggi h: 02:50 sereno Sereno 17 15 88 1013 10 N 5.5
Oggi h: 02:20 sereno Sereno 18 15 82 1014 10 NE 7.4
Oggi h: 01:50 sereno Sereno 18 15 82 1014 10 N 5.5
Oggi h: 01:20 sereno Sereno 19 15 77 1014 10 E/NE 9.3
Oggi h: 00:50 sereno Sereno 19 16 82 1014 10 NE 9.3
Oggi h: 00:20 poco_nuvoloso Poco Nuvoloso 18 16 88 1014 10 E/NE 7.4
Ieri h: 23:50 sereno Sereno 19 15 77 1015 10 E/NE 7.4
Ieri h: 23:20 poco_nuvoloso Poco Nuvoloso 18 15 82 1015 10 E/NE 7.4
Ieri h: 22:50 poco_nuvoloso Poco Nuvoloso 18 15 82 1015 10 NE 7.4
Ieri h: 22:20 poco_nuvoloso Poco Nuvoloso 19 16 82 1015 10 N 5.5
Ieri h: 21:50 poco_nuvoloso Poco Nuvoloso 19 16 82 1015 10 N 5.5
Ieri h: 21:20 poco_nuvoloso Poco Nuvoloso 19 16 82 1015 10 N 5.5
Ieri h: 20:50 poco_nuvoloso Poco Nuvoloso 18 16 88 1015 10 N 1.8
Ieri h: 20:20 poco_nuvoloso Poco Nuvoloso 19 16 82 1015 10 N 3.7
Ieri h: 19:50 poco_nuvoloso Poco Nuvoloso 19 16 82 1015 10 N 1.8
Ieri h: 19:20 poco_nuvoloso Poco Nuvoloso 20 16 77 1014 10 N 1.8